weather.gov     
National Weather Service

Terminal Aerodrome Forecast
NWS Homepage
This page is being discontinued on March 12, 2014.
The same data is available at this site. Please update your bookmarks.
Thank you, and we apologize for the inconvenience.
Please send an email to SR-SRH.Webmaster@noaa.gov with any concerns.


Current Version
Previous Version:    01  02  03  04  05  06  07  08  09  10  11  12  13  14  
[Printable]
976
FTUS41 KBTV 181135
TAFBTV
TAF
KBTV 181135Z 1812/1912 31006KT 5SM -SHSN BR SCT007 OVC012
      TEMPO 1812/1816 2SM -SHSN BR OVC007
     FM181800 32008KT P6SM VCSH OVC020=




976
FTUS41 KBTV 181135
TAFBTV
TAF
KBTV 181135Z 1812/1912 31006KT 5SM -SHSN BR SCT007 OVC012
      TEMPO 1812/1816 2SM -SHSN BR OVC007
     FM181800 32008KT P6SM VCSH OVC020=


U.S. Dept. of Commerce
NOAA National Weather Service
1325 East West Highway
Silver Spring, MD 20910
E-mail: w-nws.webmaster@noaa.gov
Page last modified: May 16, 2007
NATIONAL WEATHER SERVICE: for Safety, for Work, for Fun - FOR LIFE